Zurück zum Katalog

JCSAT 2

AktivKommunikationGEO
NORAD 20402·PAYLOAD·🇯🇵 Japan

Gestartet Jan 1, 1990 von Cape Canaveral Space Force Station

Loading…

TLE

AktuellSource: Space-Track

Epoche: Sep 13, 2026, 23:55 UTC

1 20402U 90001B   26256.99666575 -.00000157  00000-0  00000-0 0  9996
2 20402  16.0244  10.3206 0057812 326.2718  30.0763  0.98539612116203

Verfolge JCSAT 2 in Echtzeit mit AllMySat

Download on the App Store